Regional Weather Roundup
Issued by NWS Goodland, KS

Home | Current Version | Previous Version | Text Only | Print | Product List | Glossary On
Versions: 1 2 3 4 5 6 7 8 9 10 11 12 13 14 15 16 17 18 19 20 21 22 23 24 25 26 27 28 29 30 31 32 33 34 35 36 37 38 39 40 41 42 43 44 45 46 47 48 49 50
000
ASUS43 KGLD 070408
RWRGLD

GOODLAND FORECAST AREA HOURLY WEATHER ROUNDUP
NATIONAL WEATHER SERVICE GOODLAND KS
900 PM MST SAT FEB 06 2016

...OFFICIAL OBSERVATIONS...

CITY           SKY/WX    TMP DP  RH WIND       PRES   REMARKS
GOODLAND KS    CLOUDY    34  22  61 SW16      30.04F
HILL CITY KS   CLOUDY    38  26  62 W8        30.04S
IMPERIAL NEB   CLOUDY    34  23  64 NW12      30.06R
MCCOOK NEB     CLOUDY    36  25  64 W13       30.03R
AKRON CO       CLOUDY    32  24  72 W18       30.05R
BURLINGTON CO  CLOUDY    30  19  63 W17       30.07S WCI  18
LIMON CO       CLOUDY    28  17  63 W13       30.12F WCI  17
$$

...UNOFFICIAL OBSERVATIONS...

CITY           SKY/WX    TMP DP  RH WIND       PRES   REMARKS
COLBY KS       CLEAR     34  28  80 SW10      30.05R
GOVE KS          N/A     34  32  92 MISG        N/A
LENORA KS        N/A     38  32  79 MISG        N/A
NORTON KS      CLEAR     36  25  64 SW13      30.01
SHARON SPRINGS   N/A     31  25  78 SW10        N/A
TRENTON NEB      N/A     34  32  92 MISG        N/A
KIT CARSON CO    N/A     26  20  77 MISG        N/A
YUMA CO          N/A     35  28  75 W12         N/A
$$



USA.gov is the U.S. government's official web portal to all federal, state and local government web resources and services.